Norfolk, VA

10:10 AM EDT on September 29, 2016 (GMT -0400)
Norfolk International

Weather History for KORF - November, 2012

Change the Weather History Date:

Tuesday, November 6, 2012

  Actual Average Record
Temperature  
Mean Temperature 47 °F 56 °F  
Max Temperature 50 °F 64 °F 85 °F (2003)
Min Temperature 43 °F 47 °F 30 °F (1991)
Degree Days  
Heating Degree Days 18 10  
Month to date heating degree days 104 54  
Since 1 July heating degree days 246 211  
Cooling Degree Days 0 0  
Month to date cooling degree days 0 1  
Year to date cooling degree days 1850 1621  
Moisture  
Dew Point 38 °F    
Average Humidity 70    
Maximum Humidity 86    
Minimum Humidity 53    
Precipitation  
Precipitation 0.19 in 0.11 in 3.05 in (1977)
Month to date precipitation 0.19 0.67  
Year to date precipitation 43.12 40.79  
Snow  
Snow 0.00 in 0.00 in 0.00 in (2002)
Month to date snowfall 0.0 0.0  
Since 1 July snowfall 0.0 0.0  
Snow Depth 0.00 in    
Sea Level Pressure  
Sea Level Pressure 30.04 in    
Wind  
Wind Speed 15 mph (NNE)    
Max Wind Speed 25 mph    
Max Gust Speed 33 mph    
Visibility 9 miles    
Events Rain    
T = Trace of Precipitation, MM = Missing Value Source: NWS Daily Summary

Daily Weather History Graph

Daily Weather History Graph

Search for Another Location

Airport or City:

Trip Planner

Search our weather history database for the weather conditions in past years. The results will help you decide how hot, cold, wet, or windy it might be!

Date:

Astronomy

Nov. 06, 2012 Rise Set
Actual Time 6:34 AM EST 5:02 PM EST
Civil Twilight 6:07 AM EST 5:29 PM EST
Nautical Twilight 5:36 AM EST 6:00 PM EST
Astronomical Twilight 5:05 AM EST 6:30 PM EST
Moon 11:37 PM EST (11/6) 12:26 PM EST (11/6)
Length of Visible Light 11h 22m
Length of Day
10h 27m
Waning Gibbous, 53% of the Moon is Illuminated
Nov 6
Waning Gibbous
Nov 6
Last Quarter
Nov 13
New
Nov 20
First Quarter
Nov 28
Full

Hourly Weather History & Observations

Time (EST) Temp. Windchill Dew Point Humidity Pressure Visibility Wind Dir Wind Speed Gust Speed Precip Events Conditions
12:51 AM 44.1 °F 37.4 °F 28.0 °F 53% 30.13 in 10.0 mi NE 13.8 mph - N/A   Clear
1:51 AM 44.1 °F 36.8 °F 33.1 °F 65% 30.12 in 10.0 mi NNE 16.1 mph - N/A   Clear
2:51 AM 44.1 °F 38.1 °F 33.1 °F 65% 30.12 in 10.0 mi NNE 11.5 mph - N/A   Clear
3:51 AM 44.1 °F 37.4 °F 35.1 °F 71% 30.11 in 10.0 mi NNE 13.8 mph - N/A   Clear
4:51 AM 44.1 °F 38.1 °F 32.0 °F 63% 30.12 in 10.0 mi North 11.5 mph - N/A   Clear
5:51 AM 44.1 °F 37.7 °F 32.0 °F 63% 30.11 in 10.0 mi NNE 12.7 mph - N/A   Clear
6:51 AM 44.1 °F 37.4 °F 35.1 °F 71% 30.11 in 10.0 mi NNE 13.8 mph - N/A   Clear
7:51 AM 45.0 °F 38.5 °F 35.1 °F 68% 30.14 in 10.0 mi NNE 13.8 mph - N/A   Partly Cloudy
8:51 AM 46.9 °F - 35.1 °F 63% 30.12 in 10.0 mi NNE 13.8 mph - N/A   Clear
9:18 AM 46.4 °F 41.1 °F 35.6 °F 66% 30.15 in 10.0 mi North 11.5 mph - N/A   Mostly Cloudy
9:43 AM 48.2 °F - 35.6 °F 62% 30.13 in 10.0 mi North 11.5 mph - N/A   Mostly Cloudy
9:51 AM 46.9 °F - 36.0 °F 66% 30.14 in 10.0 mi North 10.4 mph - N/A   Mostly Cloudy
10:51 AM 48.0 °F - 37.0 °F 66% 30.11 in 10.0 mi NNE 16.1 mph - N/A   Clear
11:51 AM 46.9 °F - 37.0 °F 68% 30.07 in 10.0 mi NNE 15.0 mph 23.0 mph N/A   Scattered Clouds
12:02 PM 48.2 °F - 37.4 °F 66% 30.07 in 1.8 mi NNE 15.0 mph - N/A   Haze
12:06 PM 48.2 °F - 37.4 °F 66% 30.07 in 10.0 mi NNE 15.0 mph 23.0 mph N/A   Scattered Clouds
12:36 PM 48.2 °F - 37.4 °F 66% 30.06 in 10.0 mi NNE 16.1 mph 21.9 mph N/A   Mostly Cloudy
12:51 PM 48.0 °F - 37.9 °F 68% 30.06 in 10.0 mi North 13.8 mph 23.0 mph N/A   Overcast
1:20 PM 48.2 °F - 37.4 °F 66% 30.03 in 10.0 mi North 15.0 mph 23.0 mph 0.01 in   Scattered Clouds
1:51 PM 48.0 °F - 39.0 °F 71% 30.04 in 10.0 mi NNE 15.0 mph 23.0 mph 0.01 in   Overcast
2:51 PM 46.9 °F - 37.9 °F 71% 30.04 in 10.0 mi North 13.8 mph - N/A   Overcast
2:58 PM 46.4 °F 40.4 °F 37.4 °F 71% 30.04 in 10.0 mi North 13.8 mph - N/A   Mostly Cloudy
3:51 PM 48.0 °F - 37.9 °F 68% 30.01 in 10.0 mi NNE 12.7 mph - N/A   Mostly Cloudy
4:34 PM 48.2 °F - 39.2 °F 71% 29.99 in 10.0 mi NNE 15.0 mph - N/A   Mostly Cloudy
4:51 PM 48.0 °F - 39.0 °F 71% 29.98 in 10.0 mi NNE 13.8 mph - N/A   Overcast
5:29 PM 48.2 °F - 39.2 °F 71% 29.95 in 10.0 mi North 18.4 mph 24.2 mph N/A   Overcast
5:51 PM 48.9 °F - 41.0 °F 74% 29.93 in 10.0 mi NNE 19.6 mph 26.5 mph N/A   Overcast
6:14 PM 48.2 °F - 41.0 °F 76% 29.96 in 10.0 mi North 12.7 mph 19.6 mph N/A   Overcast
6:51 PM 48.9 °F - 41.0 °F 74% 29.96 in 10.0 mi North 13.8 mph - N/A   Overcast
7:51 PM 50.0 °F - 42.1 °F 74% 29.93 in 10.0 mi North 16.1 mph 24.2 mph N/A   Overcast
8:51 PM 50.0 °F - 43.0 °F 77% 29.91 in 10.0 mi North 13.8 mph 23.0 mph N/A   Overcast
9:51 PM 48.9 °F - 45.0 °F 86% 29.89 in 6.0 mi NNE 19.6 mph 25.3 mph 0.01 in Rain Light Rain
10:48 PM 48.2 °F - 44.6 °F 87% 29.88 in 6.0 mi North 19.6 mph 27.6 mph 0.09 in Rain Rain
10:51 PM 48.0 °F - 45.0 °F 89% 29.88 in 5.0 mi North 17.3 mph 27.6 mph 0.10 in Rain Rain
11:51 PM 48.0 °F - 45.0 °F 89% 29.84 in 8.0 mi North 19.6 mph 32.2 mph 0.07 in Rain Light Rain